Weather History for Winchester, TN

Change the Weather History Date:

Saturday, December 14, 2013

  Actual Average (KTHA) Record (KTHA)
Temperature  
Mean Temperature 44 °F -  
Max Temperature 51 °F 51 °F 57 °F (2012)
Min Temperature 37 °F 32 °F 24 °F (2012)
Degree Days  
Heating Degree Days 21    
Moisture  
Dew Point 42 °F    
Average Humidity 87    
Maximum Humidity 100    
Minimum Humidity 37    
Precipitation  
Precipitation 0.00 in - - ()
Sea Level Pressure  
Sea Level Pressure 29.90 in    
Wind  
Wind Speed 11 mph (SSW)    
Max Wind Speed 25 mph    
Max Gust Speed 21 mph    
Visibility 8 miles    
Events      
Averages and records for this station are not official NWS values.
T = Trace of Precipitation, MM = Missing Value Source: NWS Daily Summary

Daily Weather History Graph

Daily Weather History Graph

Search for Another Location

Airport:

Trip Planner

Search our weather history database for the weather conditions in past years. The results will help you decide how hot, cold, wet, or windy it might be!

Date:

Astronomy

Dec. 14, 2013 Rise Set
Actual Time 7:44 AM EST 5:33 PM EST
Civil Twilight 7:16 AM EST 6:01 PM EST
Nautical Twilight 6:44 AM EST 6:33 PM EST
Astronomical Twilight 6:14 AM EST 7:04 PM EST
Moon 3:51 PM EST (12/14) 5:08 AM EST (12/14)
Length of Visible Light 10h 44m
Length of Day
9h 48m
Waxing Gibbous, 93% of the Moon is Illuminated
Dec 14
Waxing Gibbous
Dec 17
Full
Dec 25
Last Quarter
Jan 1
New
Jan 7
First Quarter

Hourly Weather History & Observations

Time (EST) Temp. Windchill Dew Point Humidity Pressure Visibility Wind Dir Wind Speed Gust Speed Precip Events Conditions
12:35 AM 46.4 °F 40.4 °F 21.2 °F 37% 30.10 in 10.0 mi SE 13.8 mph - N/A   Overcast
12:55 AM 46.4 °F 40.4 °F 21.2 °F 37% 30.09 in 10.0 mi SSE 13.8 mph - N/A   Overcast
1:15 AM 46.4 °F 41.1 °F 21.2 °F 37% 30.09 in 10.0 mi SSE 11.5 mph - N/A   Overcast
1:35 AM 46.4 °F 43.5 °F 21.2 °F 37% 30.06 in 10.0 mi SE 5.8 mph - N/A   Overcast
1:55 AM 46.4 °F 39.5 °F 23.0 °F 40% 30.06 in 10.0 mi South 17.3 mph - N/A   Overcast
2:15 AM 42.8 °F 36.2 °F 30.2 °F 61% 30.04 in 6.0 mi SSE 12.7 mph - N/A   Mostly Cloudy
2:35 AM 39.2 °F 32.5 °F 33.8 °F 81% 30.02 in 7.0 mi SSE 10.4 mph - N/A   Overcast
2:55 AM 39.2 °F 31.6 °F 33.8 °F 81% 30.01 in 10.0 mi SE 12.7 mph - N/A   Overcast
3:15 AM 39.2 °F 31.6 °F 33.8 °F 81% 29.99 in 10.0 mi SSE 12.7 mph - N/A   Overcast
3:35 AM 42.8 °F 36.2 °F 33.8 °F 70% 29.99 in 10.0 mi SSE 12.7 mph - N/A   Overcast
3:55 AM 42.8 °F 34.5 °F 33.8 °F 70% 29.98 in 10.0 mi SSE 18.4 mph - N/A   Overcast
4:15 AM 44.6 °F 38.1 °F 33.8 °F 66% 29.97 in 10.0 mi SSE 13.8 mph - N/A   Overcast
4:35 AM 44.6 °F 38.1 °F 35.6 °F 71% 29.95 in 10.0 mi SSE 13.8 mph - N/A   Overcast
4:55 AM 44.6 °F 38.8 °F 35.6 °F 71% 29.95 in 10.0 mi SSE 11.5 mph - N/A   Overcast
5:15 AM 44.6 °F 38.1 °F 37.4 °F 76% 29.95 in 10.0 mi SSE 13.8 mph - N/A   Overcast
5:35 AM 44.6 °F 39.2 °F 39.2 °F 81% 29.93 in 7.0 mi SE 10.4 mph - N/A   Mostly Cloudy
5:55 AM 44.6 °F 41.4 °F 39.2 °F 81% 29.92 in 9.0 mi SE 5.8 mph - N/A   Overcast
6:15 AM 46.4 °F 44.3 °F 39.2 °F 76% 29.91 in 8.0 mi Variable 4.6 mph - N/A   Overcast
6:35 AM 44.6 °F 43.1 °F 41.0 °F 87% 29.90 in 5.0 mi Variable 3.5 mph - N/A   Mostly Cloudy
6:55 AM 44.6 °F 39.7 °F 42.8 °F 93% 29.88 in 5.0 mi SE 9.2 mph - N/A   Overcast
7:15 AM 46.4 °F 40.7 °F 44.6 °F 93% 29.86 in 5.0 mi SSE 12.7 mph - N/A   Mostly Cloudy
7:35 AM 46.4 °F 40.4 °F 44.6 °F 93% 29.85 in 4.0 mi SE 13.8 mph 20.7 mph N/A   Mostly Cloudy
7:55 AM 46.4 °F 40.7 °F 44.6 °F 93% 29.85 in 4.0 mi SE 12.7 mph - N/A   Overcast
8:15 AM 46.4 °F 40.1 °F 46.4 °F 100% 29.85 in 4.0 mi SSE 15.0 mph - N/A   Overcast
8:35 AM 48.2 °F - 46.4 °F 93% 29.86 in 10.0 mi SSE 10.4 mph - N/A   Overcast
8:55 AM 48.2 °F - 46.4 °F 93% 29.85 in 10.0 mi SSE 25.3 mph - N/A   Overcast
9:15 AM 48.2 °F - 46.4 °F 93% 29.87 in 9.0 mi South 15.0 mph - N/A   Overcast
9:35 AM 48.2 °F - 46.4 °F 93% 29.88 in 10.0 mi South 17.3 mph - N/A   Overcast
9:55 AM 48.2 °F - 46.4 °F 93% 29.89 in 10.0 mi South 11.5 mph - N/A   Overcast
10:15 AM 50.0 °F - 46.4 °F 87% 29.88 in 10.0 mi South 9.2 mph - N/A   Overcast
10:35 AM 50.0 °F - 46.4 °F 87% 29.88 in 10.0 mi SSE 8.1 mph - N/A   Overcast
10:55 AM 50.0 °F - 48.2 °F 94% 29.87 in 10.0 mi South 6.9 mph - N/A   Overcast
11:15 AM 51.8 °F - 48.2 °F 88% 29.87 in 10.0 mi SSE 8.1 mph - N/A   Overcast
11:35 AM 51.8 °F - 48.2 °F 88% 29.86 in 10.0 mi South 10.4 mph - N/A   Overcast
11:55 AM 50.0 °F - 48.2 °F 94% 29.85 in 8.0 mi South 10.4 mph - N/A   Overcast
12:15 PM 51.8 °F - 48.2 °F 88% 29.84 in 5.0 mi SSE 5.8 mph - N/A   Overcast
12:35 PM 50.0 °F - 50.0 °F 100% 29.83 in 2.0 mi SSE 3.5 mph - N/A   Overcast
12:55 PM 50.0 °F - 50.0 °F 100% 29.83 in 2.5 mi SSE 4.6 mph - N/A   Overcast
1:15 PM 50.0 °F - 50.0 °F 100% 29.82 in 3.0 mi SSE 4.6 mph - N/A   Overcast
1:35 PM 50.0 °F - 50.0 °F 100% 29.81 in 4.0 mi SE 4.6 mph - N/A   Overcast
1:55 PM 51.8 °F - 50.0 °F 94% 29.81 in 10.0 mi SSW 3.5 mph - N/A   Overcast
2:15 PM 51.8 °F - 51.8 °F 100% 29.80 in 10.0 mi SSW 3.5 mph - N/A   Overcast
2:35 PM 51.8 °F - 51.8 °F 100% 29.81 in 10.0 mi WSW 3.5 mph - N/A   Overcast
2:55 PM 51.8 °F - 51.8 °F 100% 29.80 in 9.0 mi WSW 6.9 mph - N/A   Overcast
3:15 PM 51.8 °F - 50.0 °F 94% 29.81 in 4.0 mi WSW 6.9 mph - N/A   Overcast
3:35 PM 51.8 °F - 50.0 °F 94% 29.81 in 6.0 mi WSW 6.9 mph - N/A   Overcast
3:55 PM 51.8 °F - 50.0 °F 94% 29.82 in 9.0 mi WSW 4.6 mph - N/A   Overcast
4:15 PM 51.8 °F - 50.0 °F 94% 29.82 in 10.0 mi WSW 4.6 mph - N/A   Overcast
4:35 PM 51.8 °F - 50.0 °F 94% 29.82 in 10.0 mi West 5.8 mph - N/A   Overcast
4:55 PM 50.0 °F - 48.2 °F 94% 29.82 in 10.0 mi West 8.1 mph - N/A   Overcast
5:15 PM 50.0 °F - 48.2 °F 94% 29.84 in 10.0 mi West 5.8 mph - N/A   Overcast
5:35 PM 48.2 °F - 48.2 °F 100% 29.84 in 10.0 mi West 5.8 mph - N/A   Overcast
5:55 PM 48.2 °F - 46.4 °F 93% 29.85 in 10.0 mi West 8.1 mph - N/A   Overcast
6:15 PM 48.2 °F - 46.4 °F 93% 29.86 in 10.0 mi West 6.9 mph - N/A   Overcast
6:35 PM 48.2 °F - 46.4 °F 93% 29.87 in 10.0 mi West 5.8 mph - N/A   Overcast
6:55 PM 48.2 °F - 46.4 °F 93% 29.89 in 5.0 mi West 6.9 mph - N/A   Overcast
7:15 PM 46.4 °F 42.4 °F 46.4 °F 100% 29.89 in 6.0 mi West 8.1 mph - N/A   Overcast
7:35 PM 44.6 °F 41.4 °F 44.6 °F 100% 29.91 in 3.0 mi West 5.8 mph - N/A   Overcast
7:55 PM 44.6 °F 40.7 °F 44.6 °F 100% 29.90 in 2.5 mi WNW 6.9 mph - N/A   Overcast
8:15 PM 44.6 °F 40.2 °F 44.6 °F 100% 29.91 in 7.0 mi WNW 8.1 mph - N/A   Overcast
8:35 PM 44.6 °F 39.2 °F 42.8 °F 93% 29.91 in 7.0 mi NNW 10.4 mph - N/A   Overcast
8:55 PM 42.8 °F 37.5 °F 39.2 °F 87% 29.92 in 10.0 mi NW 9.2 mph - N/A   Overcast
9:15 PM 41.0 °F 33.9 °F 39.2 °F 93% 29.91 in 7.0 mi NNW 12.7 mph - N/A   Overcast
9:35 PM 39.2 °F 32.5 °F 37.4 °F 93% 29.93 in 6.0 mi NNW 10.4 mph - N/A   Overcast
9:55 PM 37.4 °F 30.3 °F 37.4 °F 100% 29.92 in 4.0 mi NNW 10.4 mph - N/A   Overcast
10:15 PM 37.4 °F 30.8 °F 37.4 °F 100% 29.95 in 8.0 mi NW 9.2 mph - N/A   Overcast
10:35 PM 37.4 °F 30.8 °F 35.6 °F 93% 29.96 in 10.0 mi NW 9.2 mph - N/A   Overcast
10:55 PM 37.4 °F 32.8 °F 35.6 °F 93% 29.95 in 10.0 mi NW 5.8 mph - N/A   Overcast
11:15 PM 37.4 °F 30.8 °F 35.6 °F 93% 29.96 in 10.0 mi NW 9.2 mph - N/A   Overcast
11:35 PM 37.4 °F 32.1 °F 35.6 °F 93% 29.97 in 10.0 mi NW 6.9 mph - N/A   Overcast
11:55 PM 37.4 °F 31.4 °F 35.6 °F 93% 29.97 in 10.0 mi WNW 8.1 mph - N/A   Overcast